Vertical_Velocity
-3 -4 9 -2 10 1 2 0 -0 1 0 -0 0 1 2 1 -0 2 2 -1 2 -2 2 1 -3 -2 -4 -3 -15 4 1 0 -4 -0 -1 0 -2 -0 -0 0 -2 1 -0 -2 -0 -1 1
2 -0 3 22 11 -1 10 1 -1 2 -1 2 0 -1 -1 0 2 -0 1 2 -0 -0 2 0 2 -1 -3 -4 1 -1 1 1 -1 0 0 1 -1 -1 0 -0 -1 1 1 -2 -4 -7 1
-1 1 1 4 8 -0 -1 2 3 -1 1 -1 2 0 4 -3 2 2 1 0 1 1 -1 0 2 -2 -3 -34 -0 -5 -2 2 2 -3 -2 4 2 -3 -0 -1 -0 -0 -0 -3 -2 -1 -2
-0 0 1 6 2 -3 13 1 -1 3 1 0 2 2 1 3 -2 3 -2 2 2 2 2 1 -1 -0 -18 -2 -5 3 4 -4 1 1 0 1 3 2 -1 1 -2 -1 -1 -2 -5 -0 -4
-1 -3 0 2 3 3 1 7 2 1 12 1 -1 -0 4 1 3 4 4 1 1 4 1 -1 -1 -0 -19 2 -5 -0 1 2 -2 5 2 0 4 -2 2 -2 -4 -2 -1 0 -7 0 0
-4 -1 -4 -1 -2 4 2 -6 -2 -4 -1 6 1 0 1 6 4 4 3 -0 6 3 -3 -3 2 -2 -1 -6 -1 0 2 2 0 -0 5 5 1 -1 0 -2 -4 -2 0 0 -0 -7 -1
4 -4 0 -2 0 -2 -0 4 6 -1 4 3 10 -1 3 6 9 3 -3 4 1 1 1 -14 -5 1 -1 -6 3 4 4 2 -1 2 -1 1 -1 -3 -4 -3 -1 0 1 1 -2 -6 3
5 -2 8 -5 0 0 -1 1 -2 -0 4 -6 8 11 3 5 7 3 13 -5 -11 5 -1 -7 0 -4 1 2 -6 -1 1 4 -0 -1 1 -0 -3 -5 -1 1 1 1 1 -4 -5 -2 1
-3 2 -1 1 -4 -2 3 0 2 7 1 -1 11 -3 23 6 5 18 -3 5 2 1 -0 -5 -12 -7 -27 20 -13 -22 -3 -1 -2 2 -0 -3 -7 1 -0 1 2 -1 -1 -1 -4 -2 -2
2 3 -1 2 2 -1 1 3 -0 -1 -3 7 4 3 0 29 21 -6 -1 2 4 2 -0 -10 -0 -7 1 7 -1 -29 -0 -8 4 -7 -1 -3 -9 1 1 -0 -1 2 -2 1 1 1 -4
1 -3 -0 2 1 3 -3 3 2 -5 -5 1 5 4 10 13 -13 -21 -21 6 16 -8 6 -9 3 7 0 -10 -3 -2 11 29 -3 -3 -3 -17 0 1 3 -10 -2 -11 2 -1 -0 0 -2
-2 -3 -2 1 2 -4 3 -1 -2 2 -1 2 1 1 -2 32 18 -5 5 5 6 10 -14 0 -1 -1 2 6 -1 4 0 10 -1 0 1 -5 2 -0 -5 -1 -1 -2 -0 -2 -1 -1 -2
2 1 -2 -2 8 6 5 -5 3 -1 4 2 0 8 0 19 -16 2 5 13 11 2 -4 -3 -1 1 -1 1 3 1 -0 4 -6 1 1 -0 -5 -1 -1 1 0 -1 -3 -3 -6 -3 -6
-2 3 -1 -1 1 3 -1 1 6 -1 0 2 4 11 4 9 21 -3 11 11 10 -4 -4 -1 -0 3 -2 -3 -1 1 4 3 1 -1 -1 -2 -6 -1 -2 -9 -8 -2 -7 -7 -4 -2 -3
2 0 -1 -1 -1 0 6 -10 6 2 5 5 10 1 1 11 16 5 10 9 -12 -2 -7 0 7 0 1 1 -7 1 -1 -3 -5 -3 -7 -1 -5 0 0 -1 -11 -2 -0 -10 -5 -0 -4
-4 -0 1 -2 -3 -0 4 1 -7 1 11 5 7 23 -5 2 14 25 19 -9 -2 -2 1 5 -4 -4 -2 0 1 5 0 -7 -2 -4 -1 -3 -3 -1 1 -3 2 -10 -6 -9 -5 -3 -0
0 -2 -1 0 3 -2 -2 2 7 3 5 3 31 20 -0 2 35 30 -0 -5 -0 -1 -2 7 -2 -0 -2 -4 -2 -2 -6 -3 1 2 0 -2 -5 -7 -1 -1 -5 1 2 -1 -8 -4 -5
-1 -1 -2 -1 -3 1 -2 6 -7 1 11 16 21 8 28 18 19 -0 -0 -5 -3 -1 6 -0 1 0 -3 -1 0 2 -4 -6 1 -7 -1 -7 -3 -1 -4 -2 -1 -2 -3 -4 -4 -3 -1
1 1 -2 2 1 -1 -3 3 15 9 -0 3 14 -1 25 13 1 2 3 2 -6 4 -1 2 -1 -1 -1 -1 -3 -1 -0 -2 1 -1 -9 -5 -1 -1 -9 -8 -3 -0 1 -1 -1 -2 -2
2 -1 -1 -1 2 -1 3 2 -1 -1 3 27 10 -1 7 8 2 -5 1 -5 3 5 0 -1 -4 4 1 2 0 1 1 0 1 -0 2 -4 -1 -7 -11 -7 -5 0 1 0 -4 -2 -2
8 3 -0 -1 -7 0 -0 -2 -0 9 10 17 7 -2 -2 -1 7 2 4 -1 1 2 0 -0 6 -2 -3 0 1 -0 1 1 -3 2 -1 -6 -3 -1 1 0 -0 -1 -2 1 -2 -2 -7
-0 -18 1 4 6 6 11 2 9 9 30 15 -7 -7 3 0 3 4 2 -3 -4 4 -8 3 1 -1 -0 -3 -12 -4 -5 -2 -7 1 -0 -0 -1 -1 -0 -0 -1 0 0 0 -0 1 1
-11 50 49 20 37 11 42 33 30 34 7 13 2 8 -4 1 3 4 -7 -0 -3 -5 -2 -6 -5 -3 1 -1 -0 2 0 -2 -4 -5 -0 -2 -3 -1 0 -0 -2 -6 -5 -1 -1 0 -7
13 -9 -6 10 -5 14 12 9 10 19 22 -18 -6 -14 -5 1 -2 -6 -1 -4 -1 -0 -7 1 -2 -6 -6 2 -1 -4 -9 -2 -3 1 -1 -1 -1 -1 1 -2 -1 -14 -0 -3 -4 -2 0
4 9 11 4 -1 -1 -8 -16 -12 15 17 -10 -10 -8 -5 0 -3 7 5 -3 2 5 -1 -4 1 -3 4 -10 -4 -2 -4 -1 1 -0 1 -2 -1 -1 -3 -1 -6 -3 -2 -3 -6 -5 -2
4 5 4 -2 3 8 4 -8 -7 -6 2 -14 -4 -7 2 -9 0 -9 -4 -7 -4 0 -0 3 8 14 2 -2 -1 -1 -2 -2 3 6 1 -1 -3 -7 1 -2 -5 -9 -1 1 -3 -8 -1
-1 0 1 4 4 1 -0 11 13 -1 15 -10 -8 -2 -16 -8 -3 -1 -1 -5 -2 -1 -2 1 0 -3 -1 -0 -1 -1 -1 -3 -2 -2 1 -0 -1 -3 0 -1 -8 -3 -1 0 -4 -23 -1
1 -1 1 -1 0 1 2 -1 -3 -3 -2 -1 1 13 -15 -5 6 4 -8 -7 1 0 -4 3 -3 -0 0 -1 -2 -1 -1 -3 -2 -3 -4 -7 -5 -1 0 -1 -12 -3 4 1 -14 2 -3
-2 -1 0 2 1 1 -1 -2 1 0 3 1 -10 5 0 -20 2 10 10 1 -6 -3 -18 5 -5 -1 -3 -4 -1 -1 1 0 -2 -2 1 -3 -9 -10 -13 -15 -3 -2 0 -0 -2 -4 -4
Height
1451 1454 1457 1462 1465 1469 1474 1479 1483 1486 1490 1495 1498 1502 1506 1509 1512 1515 1517 1519 1521 1522 1522 1521 1521 1520 1522 1522 1520 1519 1516 1516 1517 1517 1517 1516 1517 1517 1518 1519 1517 1516 1515 1513 1511 1509 1506
1441 1446 1450 1453 1456 1460 1466 1472 1476 1480 1485 1488 1493 1497 1501 1505 1508 1511 1513 1516 1518 1520 1519 1519 1519 1518 1520 1522 1515 1515 1513 1515 1515 1516 1516 1518 1516 1518 1519 1517 1519 1516 1514 1510 1507 1504 1501
1432 1436 1441 1445 1448 1453 1458 1463 1468 1473 1478 1483 1487 1492 1496 1500 1504 1507 1511 1514 1515 1517 1517 1517 1516 1515 1516 1513 1513 1512 1512 1512 1513 1515 1515 1518 1517 1518 1519 1518 1516 1515 1515 1510 1503 1501 1499
1423 1427 1431 1436 1441 1445 1450 1454 1460 1466 1471 1476 1481 1486 1491 1496 1500 1504 1508 1511 1512 1515 1515 1514 1515 1514 1509 1506 1506 1506 1508 1508 1508 1512 1514 1516 1517 1519 1519 1518 1514 1515 1515 1519 1504 1501 1499
1414 1418 1422 1426 1432 1438 1442 1445 1451 1457 1462 1469 1475 1480 1485 1490 1495 1500 1504 1508 1510 1511 1512 1513 1515 1514 1506 1501 1501 1503 1504 1504 1503 1507 1511 1515 1516 1517 1519 1521 1526 1521 1525 1519 1512 1500 1501
1406 1409 1413 1418 1422 1428 1434 1440 1444 1448 1455 1460 1467 1473 1479 1485 1490 1495 1500 1504 1507 1507 1511 1513 1514 1516 1502 1501 1501 1503 1502 1503 1502 1507 1509 1513 1515 1517 1519 1522 1532 1524 1524 1521 1518 1506 1503
1395 1399 1404 1409 1414 1419 1426 1432 1436 1440 1447 1452 1458 1465 1472 1480 1484 1489 1495 1500 1508 1509 1507 1503 1501 1498 1497 1498 1499 1499 1500 1502 1504 1506 1507 1509 1516 1516 1512 1513 1513 1516 1518 1520 1515 1505 1508
1385 1389 1394 1400 1405 1411 1416 1422 1428 1434 1439 1444 1451 1457 1464 1472 1478 1484 1489 1490 1493 1496 1497 1495 1496 1496 1496 1496 1498 1497 1499 1501 1500 1505 1507 1511 1509 1504 1507 1510 1515 1518 1521 1519 1510 1502 1505
1374 1379 1384 1391 1396 1402 1408 1413 1420 1426 1432 1436 1444 1451 1456 1463 1472 1481 1482 1486 1492 1494 1497 1488 1485 1484 1487 1491 1490 1491 1494 1496 1495 1500 1504 1508 1500 1494 1502 1507 1515 1514 1517 1513 1511 1502 1500
1363 1368 1374 1380 1387 1392 1399 1405 1411 1417 1425 1431 1437 1443 1449 1454 1467 1472 1478 1485 1490 1494 1503 1483 1478 1469 1476 1483 1477 1481 1485 1493 1492 1494 1500 1501 1494 1496 1501 1505 1508 1515 1500 1501 1503 1505 1515
1353 1358 1364 1370 1376 1382 1390 1396 1403 1410 1418 1424 1430 1438 1444 1447 1449 1461 1469 1481 1487 1496 1494 1464 1465 1465 1466 1473 1470 1472 1475 1482 1485 1487 1493 1494 1489 1492 1497 1496 1498 1502 1493 1497 1496 1501 1506
1342 1348 1354 1359 1365 1373 1381 1387 1395 1403 1410 1417 1425 1432 1440 1440 1445 1453 1466 1476 1483 1489 1483 1457 1456 1461 1470 1467 1465 1468 1475 1479 1482 1486 1485 1487 1486 1485 1488 1488 1490 1488 1493 1499 1503 1507 1520
1331 1337 1344 1350 1356 1363 1370 1378 1386 1395 1402 1411 1418 1426 1432 1436 1439 1449 1461 1468 1475 1468 1462 1450 1452 1454 1460 1462 1465 1465 1471 1475 1480 1492 1490 1486 1484 1483 1485 1490 1487 1491 1500 1522 1523 1524 1520
1321 1327 1333 1340 1347 1353 1361 1370 1377 1387 1396 1403 1412 1420 1426 1430 1434 1442 1454 1461 1458 1452 1459 1441 1444 1450 1457 1454 1459 1462 1468 1473 1472 1474 1485 1491 1494 1479 1476 1481 1488 1494 1497 1518 1521 1526 1517
1311 1318 1324 1330 1337 1345 1352 1362 1369 1379 1389 1397 1406 1413 1418 1421 1427 1432 1440 1447 1440 1445 1445 1441 1442 1448 1451 1451 1453 1459 1464 1464 1464 1468 1480 1488 1484 1465 1465 1469 1477 1490 1497 1491 1512 1521 1535
1301 1308 1315 1321 1329 1336 1343 1352 1359 1371 1381 1389 1396 1404 1405 1413 1421 1424 1426 1420 1434 1431 1433 1430 1434 1436 1445 1448 1453 1455 1459 1451 1458 1458 1465 1471 1479 1465 1464 1465 1471 1474 1482 1505 1516 1516 1518
1292 1299 1306 1313 1320 1327 1335 1344 1352 1362 1371 1382 1391 1390 1389 1406 1417 1419 1409 1413 1424 1418 1432 1430 1431 1437 1434 1438 1443 1449 1451 1448 1447 1452 1461 1466 1473 1473 1466 1467 1472 1478 1484 1492 1498 1508 1510
1282 1289 1297 1304 1311 1318 1327 1334 1344 1355 1365 1376 1383 1382 1385 1395 1407 1401 1405 1407 1414 1422 1427 1428 1432 1431 1430 1432 1437 1446 1444 1441 1439 1446 1456 1455 1470 1479 1472 1467 1463 1465 1470 1479 1496 1498 1511
1274 1281 1288 1295 1302 1311 1318 1326 1337 1345 1354 1366 1368 1381 1377 1388 1387 1389 1399 1404 1410 1415 1416 1424 1429 1431 1428 1428 1436 1436 1440 1439 1439 1441 1444 1455 1470 1485 1481 1474 1468 1466 1470 1474 1482 1491 1495
1267 1273 1280 1287 1294 1301 1309 1318 1327 1336 1347 1360 1359 1364 1377 1379 1377 1381 1392 1396 1404 1407 1413 1416 1422 1434 1429 1429 1427 1430 1440 1440 1442 1441 1443 1444 1460 1461 1464 1464 1468 1474 1472 1474 1479 1499 1493
1263 1266 1273 1279 1286 1294 1302 1310 1320 1327 1340 1349 1345 1358 1354 1368 1373 1372 1386 1392 1397 1406 1410 1413 1423 1424 1423 1430 1431 1436 1440 1445 1444 1442 1444 1447 1462 1469 1470 1467 1466 1468 1473 1474 1476 1481 1488
1250 1254 1264 1273 1281 1288 1297 1305 1313 1323 1332 1339 1337 1346 1352 1359 1367 1375 1383 1390 1394 1404 1406 1411 1413 1416 1420 1425 1421 1426 1431 1437 1437 1445 1444 1447 1468 1470 1475 1470 1470 1471 1474 1473 1474 1476 1477
1255 1251 1258 1269 1277 1282 1286 1293 1306 1311 1317 1323 1330 1338 1345 1358 1364 1372 1376 1385 1387 1394 1404 1404 1408 1411 1416 1421 1421 1425 1426 1429 1431 1438 1443 1446 1456 1464 1474 1473 1474 1477 1468 1470 1471 1469 1470
1270 1265 1264 1269 1275 1280 1285 1293 1301 1304 1313 1316 1328 1337 1347 1361 1360 1363 1370 1380 1387 1390 1397 1405 1408 1411 1418 1419 1422 1429 1431 1433 1435 1437 1439 1448 1452 1463 1472 1478 1484 1456 1456 1458 1459 1460 1463
1284 1282 1283 1284 1286 1288 1295 1301 1306 1310 1316 1322 1328 1333 1337 1354 1358 1366 1366 1377 1384 1388 1397 1402 1407 1408 1414 1418 1435 1441 1444 1440 1445 1443 1443 1445 1459 1469 1471 1475 1467 1454 1456 1457 1458 1462 1459
1296 1295 1295 1296 1299 1302 1306 1310 1314 1311 1318 1324 1329 1332 1339 1342 1358 1361 1369 1372 1379 1388 1398 1405 1409 1413 1415 1426 1433 1435 1438 1434 1441 1439 1439 1444 1444 1456 1475 1477 1480 1454 1450 1448 1453 1469 1456
1306 1306 1307 1308 1310 1312 1315 1319 1320 1323 1327 1329 1330 1333 1343 1347 1362 1365 1367 1376 1381 1388 1398 1405 1411 1415 1417 1423 1431 1437 1434 1427 1433 1433 1439 1446 1455 1457 1468 1472 1461 1449 1447 1450 1463 1458 1450
1315 1315 1316 1317 1318 1320 1322 1324 1327 1332 1334 1337 1342 1345 1344 1354 1366 1370 1370 1376 1382 1388 1391 1401 1411 1417 1420 1423 1428 1434 1432 1430 1430 1431 1431 1438 1451 1461 1468 1480 1470 1441 1447 1451 1446 1443 1447
1325 1324 1324 1324 1326 1327 1329 1332 1334 1337 1338 1340 1341 1343 1348 1355 1370 1374 1377 1377 1380 1386 1387 1394 1395 1401 1405 1417 1425 1425 1429 1433 1428 1438 1430 1438 1432 1441 1442 1444 1436 1437 1439 1439 1441 1441 1443